DELTA 1 DEB, 12647

Orbit data source: Space-Track

DELTA 1 DEB, 12647 is space debris in LEO originally from a launch on Thu, 29 Jul 1976 UTC launched from the Air Force Western Test Range (AFWTR). Debris objects in space refer to the collection of defunct objects orbiting the Earth. Examples of debris include non-operational satellites, rocket bodies, and fragments generated from explosions, collisions, or faulty payload assembly.

Loading next visibility...
Identifier
12647, 1976-077EA
Orbit
LEO
Country
Flag of USUS
Related business
Manufacturer
Unknown
Mission
Spacecraft
Bus & Motor
Unknown
Mass
Unknown
Launch date (UTC)
1976-07-29 (50 years ago)
Launch vehicle
Unknown
Launch site
Air Force Western Test Range (AFWTR)
Object type
Payload
Rocket body
Debris
Shape & HBR
Unknown shape, 0.1 m
Radar Cross Section
Small (<0.1 m²)

Expand to show TLE details & history
Last TLE update: 1 day ago

TLE from 1 day ago
0 DELTA 1 DEB
1 12647U 76077EA  26045.25871713 -.00000928  00000-0 -10863-1 0  9998
2 12647 100.6668 146.1469 0368042  87.7372 342.5795 11.86683180 73341
Epoch: 2026-02-14T06:12Z
TLE epoch observation values (Epoch: 2026-02-14T06:12:33.160Z)
Latitude
66.63354°
Longitude
-116.98458°
Altitude
1,468.301 km
Speed
7.259 km/s
True Right ascension
08h 01m 45s
True Declination
66° 31' 10"
Sunlit
Object was in daylight at epoch
Visualization orbit readout
Latitude
Unknown
Longitude
Unknown
Altitude
Unknown
Speed
Unknown
Apparent Right ascension
Unknown
Apparent Declination
Unknown
Sunlit
N/A
Visualization observer readout
Local Sidereal Time
16:52:55
Azimuth
Unknown
Elevation
Unknown
Doppler factor
Unknown
Orbital elements
Apogee altitude
2,037.337 km
Perigee altitude
1,439.876 km
Semi-major axis
8,116.744 km
Eccentricity
0.0368
Inclination
100.6668°
RAAN
146.1469°
Arg. of periapsis
87.7372°
True anomaly
341.25913°
Mean anomaly
342.5795°
Eccentric anomaly
341.92525°
Mean motion
2.96804 °/min
Orbital period
121.29 mins
BSTAR
-0.010863
Loading maneuver chart data...
Computing Atmospheric mass density...
Loading historical data...
Loading historical data...
Loading historical data...
Loading historical data...
Loading historical data...
Loading historical data...
Loading historical data...

Documentation

Showing up to 5 results
|